Location: Newark
(45.5167°N, 11.1667°E)
Time: 20:43:36
(UTC+00:00)

Explorer 7 - Pass Details

Date: 22 December 2019
Orbit: 485 x 679 km, 50.3° (Epoch: 22 January)

Event Time Altitude Azimuth Distance (km) Brightness Sun altitude
Rises 17:30:01 0° 290° (WNW) 3,027 11.5 -19.2°
Reaches altitude 10° 17:32:47 10° 276° (W) 2,117 10.8 -19.7°
Maximum altitude 17:36:36 23° 225° (SW) 1,436 9.6 -20.3°
Drops below altitude 10° 17:40:22 10° 174° (S) 2,092 9.8 -21.0°
Sets 17:43:05 0° 160° (SSE) 2,984 10.5 -21.4°
